Hourly Data Report for September 02, 2015

All times are specified in Local Standard Time (LST). Add 1 hour to adjust for Daylight Saving Time where and when it is observed.

TORONTO INTL A
ONTARIO

43°40'36.000" N
79°37'50.000" W
173.40 m
6158731
71624
YYZ

Download Data

Hourly Data (September 2015)
Hourly Data Report for September 2, 2015
Temp Definition
°C
Dew Point Temp Definition
°C
Rel Hum Definition
%
Wind Dir Definition
10's deg

Wind Spd Definition
km/h
Visibility Definition
km
Stn Press Definition
kPa
Hmdx Definition


Wind Chill Definition


Weather Definition


TIME
00:00 Legend Double Dagger 21.3 18.0 81 29 9 19.3 99.68 27   LegendNANA
01:00 Legend Double Dagger 21.0 18.1 83 25 5 19.3 99.68 27   Clear
02:00 Legend Double Dagger 20.6 17.5 82 33 3 19.3 99.64 26   LegendNANA
03:00 Legend Double Dagger 20.9 17.6 81 30 3 16.1 99.60 27   LegendNANA
04:00 Legend Double Dagger 20.4 17.3 82 36 1 16.1 99.60 26   Mainly Clear
05:00 Legend Double Dagger 20.8 18.0 84 22 6 14.5 99.61 27   LegendNANA
06:00 Legend Double Dagger 21.1 18.3 84 20 3 14.5 99.63 27   LegendNANA
07:00 Legend Double Dagger 22.1 18.7 81 15 5 16.1 99.65 29   Mainly Clear
08:00 Legend Double Dagger 23.7 19.5 77 26 6 16.1 99.64 31   LegendNANA
09:00 Legend Double Dagger 25.5 20.2 72 24 4 16.1 99.61 33   LegendNANA
10:00 Legend Double Dagger 27.8 20.8 65 27 4 16.1 99.61 36   Mainly Clear
11:00 Legend Double Dagger 30.2 20.4 55 24 10 24.1 99.55 38   LegendNANA
12:00 Legend Double Dagger 31.3 19.2 48 25 19 24.1 99.47 38   LegendNANA
13:00 Legend Double Dagger 32.2 18.7 44 25 16 24.1 99.43 39   Cloudy
14:00 Legend Double Dagger 32.6 19.1 44 30 18 24.1 99.38 39   LegendNANA
15:00 Legend Double Dagger 32.4 18.9 44 27 10 24.1 99.31 39   LegendNANA
16:00 Legend Double Dagger 32.5 19.3 45 27 10 24.1 99.26 40   Mostly Cloudy
17:00 Legend Double Dagger 29.3 20.4 58 14 12 24.1 99.23 37   LegendNANA
18:00 Legend Double Dagger 28.2 20.6 63 13 7 24.1 99.20 36   LegendNANA
19:00 Legend Double Dagger 27.3 20.5 66 9 3 24.1 99.21 35   Mostly Cloudy
20:00 Legend Double Dagger 27.0 20.5 67 3 7 24.1 99.28 35   LegendNANA
21:00 Legend Double Dagger 26.7 20.4 68 1 4 24.1 99.32 35   LegendNANA
22:00 Legend Double Dagger 25.7 20.4 72 31 13 24.1 99.35 34   Mainly Clear
23:00 Legend Double Dagger 24.8 20.2 75 35 11 24.1 99.29 33   LegendNANA

Notes on Data Quality.

Legend

  • E = Estimated
  • M = Missing
  • NA = Not Available
  • ‡ = Partner data that is not subject to review by the National Climate Archives
Date modified: